[[{"header":{"parameterUnit":"m.s-1","parameterCategory":1,"la1":30.2991,"la2":30.254,"lo1":-89.0895,"lo2":-89.0444,"dy":0.0017,"dx":0.0017,"nx":28,"ny":28,"refTime":"2024-02-25T09:00:00:Z","depth":0,"parameterNumber":2,"parameterNumberName":"U-component_of_WINDS"},"data":[0,0,0,0,0,0,0,0,0,0,0,0,0,0,0,0,0,0,0,0,0,0,0,0,0,0,0,0,0,0,0,0,0,0,0,0,0,0,0,0,0,0,0,0,0,0,0,0,0,0,0,0,0,0,0,0,0,0,-1.4161,-1.4162,0,-1.4239,-1.4239,-1.424,-1.4257,-1.4256,-1.4256,-1.4255,-1.4339,-1.4341,-1.4344,0,0,0,0,0,0,0,0,0,0,0,0,0,-1.403,-1.4032,-1.4161,-1.4162,-1.4163,-1.4238,-1.424,-1.4241,-1.4257,-1.4256,-1.4255,-1.4255,-1.4338,-1.4341,-1.4344,0,0,0,0,0,0,0,0,0,0,0,0,0,-1.4095,-1.4033,-1.4161,-1.418,-1.4182,-1.4238,-1.424,-1.4241,-1.4257,-1.4256,-1.4255,-1.4254,-1.4337,-1.4341,-1.4345,-1.4388,0,0,-1.4358,-1.4359,0,0,0,0,0,0,0,0,-1.4092,-1.41,-1.4176,-1.4179,-1.4182,-1.4237,-1.4224,-1.429,-1.4257,-1.4229,-1.4255,-1.4254,-1.4306,-1.4312,-1.4329,-1.4392,-1.4396,-1.4358,-1.436,-1.4362,-1.4363,0,0,0,0,0,0,0,-1.4087,-1.4097,-1.4192,-1.4177,-1.4181,-1.4186,-1.4194,-1.4237,-1.4272,-1.4231,-1.4233,-1.4241,-1.4307,-1.4325,-1.4331,-1.4397,-1.4358,-1.4362,-1.4364,-1.4366,-1.4498,-1.4499,0,0,0,0,0,0,-1.4079,-1.4093,-1.4189,-1.4194,-1.4133,-1.4189,-1.4198,-1.422,-1.4271,-1.4278,-1.4242,-1.4242,-1.4318,-1.4326,-1.4334,-1.4387,-1.4362,-1.4366,-1.4369,-1.4497,-1.4499,-1.45,0,0,0,0,0,0,-1.4076,-1.4087,-1.4186,-1.4144,-1.4157,-1.4192,-1.4217,-1.4222,-1.424,-1.4279,-1.4286,-1.4254,-1.4318,-1.4328,-1.4374,-1.439,-1.4368,-1.4372,-1.4496,-1.4498,-1.4499,-1.4494,0,0,0,0,0,0,-1.4072,-1.4086,-1.4102,-1.4144,-1.4159,-1.4224,-1.4218,-1.4224,-1.4247,-1.4247,-1.4292,-1.4298,-1.4318,-1.4368,-1.4378,-1.4396,-1.4375,-1.4495,-1.4497,-1.4499,-1.4493,-1.4495,-1.4497,0,0,0,0,0,-1.4067,-1.4099,-1.4103,-1.4114,-1.418,-1.4225,-1.4233,-1.4254,-1.4248,-1.4265,-1.429,-1.4297,-1.4387,-1.4372,-1.4384,-1.4403,-1.4494,-1.4496,-1.4499,-1.4492,-1.4494,-1.4497,0,0,0,0,0,0,-1.4059,-1.4105,-1.411,-1.4155,-1.4186,-1.4227,-1.4249,-1.4257,-1.4291,-1.429,-1.4316,-1.4326,-1.4369,-1.4391,-1.4374,-1.4447,-1.444,-1.4445,-1.4431,-1.4434,-1.4436,-1.4429,-1.4379,0,0,0,0,0,-1.4063,-1.4094,-1.4132,-1.4169,-1.4184,-1.4214,-1.4234,-1.4247,-1.4281,-1.4294,-1.4322,-1.4355,-1.4391,-1.4414,-1.4449,-1.4496,-1.4506,-1.4515,-1.4517,-1.4519,-1.4522,-1.4548,-1.4552,-1.4507,-1.4507,-1.4507,0,0,-1.407,-1.4099,-1.4118,-1.4168,-1.4193,-1.4226,-1.4225,-1.426,-1.4284,-1.43,-1.4344,-1.4366,-1.4405,-1.445,-1.4472,-1.447,-1.4537,-1.4522,-1.4523,-1.4526,-1.4551,-1.4555,-1.4559,-1.4509,-1.4509,-1.4508,0,0,-1.41,-1.4126,-1.4158,-1.4183,-1.422,-1.4239,-1.4247,-1.4287,-1.4302,-1.4346,-1.4358,-1.4389,-1.445,-1.4476,-1.4498,-1.4537,-1.4545,-1.4548,-1.4559,-1.4583,-1.4587,-1.459,-1.4603,-1.4607,-1.4552,-1.4552,-1.4552,0,-1.4106,-1.4154,-1.4174,-1.4208,-1.423,-1.4244,-1.4277,-1.4301,-1.4348,-1.4363,-1.436,-1.4436,-1.4463,-1.4515,-1.4524,-1.4541,-1.4551,-1.4543,-1.4584,-1.4588,-1.4591,-1.4604,-1.4609,-1.4552,-1.4552,-1.4552,-1.4552,0,-1.4158,-1.4191,-1.4213,-1.4256,-1.4281,-1.4314,-1.434,-1.4363,-1.4374,-1.4394,-1.4439,-1.4472,-1.4513,-1.4527,-1.4539,-1.458,-1.4578,-1.4579,-1.4572,-1.4595,-1.4607,-1.4612,-1.4552,-1.4552,-1.4552,-1.4552,0,0,-1.4185,-1.4238,-1.4245,-1.4265,-1.4306,-1.4333,-1.4368,-1.4406,-1.4424,-1.4457,-1.4486,-1.4537,-1.4538,-1.4563,-1.4578,-1.46,-1.4627,-1.4599,-1.46,-1.4602,-1.4674,-1.4671,-1.4676,-1.4633,-1.4634,-1.4635,-1.467,0,-1.4219,-1.4278,-1.4297,-1.4347,-1.4378,-1.4392,-1.4421,-1.4451,-1.447,-1.45,-1.4523,-1.4558,-1.4557,-1.4572,-1.4594,-1.4619,-1.4642,-1.4617,-1.4661,-1.4662,-1.4649,-1.4683,-1.4681,-1.4713,-1.4675,-1.4676,-1.4677,0,-1.4267,-1.4297,-1.435,-1.4386,-1.44,-1.4426,-1.4462,-1.4491,-1.4525,-1.4537,-1.4564,-1.4577,-1.4614,-1.4606,-1.4657,-1.464,-1.4659,-1.4674,-1.4676,-1.468,-1.467,-1.4687,-1.4723,-1.4728,-1.4685,-1.4684,-1.4683,0,-1.4279,-1.4334,-1.4372,-1.4389,-1.4433,-1.445,-1.447,-1.4503,-1.4524,-1.4557,-1.4571,-1.4608,-1.4629,-1.4658,-1.4681,-1.4673,-1.473,-1.4724,-1.4741,-1.4741,-1.4752,-1.4751,-1.4791,-1.4766,-1.4766,-1.4766,-1.4766,0,-1.4315,-1.4346,-1.4378,-1.4401,-1.4437,-1.4459,-1.4494,-1.4514,-1.4543,-1.4571,-1.4587,-1.4613,-1.4643,-1.4673,-1.4692,-1.4731,-1.4741,-1.4752,-1.4757,-1.475,-1.4748,-1.4762,-1.476,-1.4768,-1.4767,-1.4767,-1.4767,0,-1.4335,-1.4358,-1.44,-1.4437,-1.4447,-1.4472,-1.4504,-1.4528,-1.4548,-1.4583,-1.4593,-1.4625,-1.4662,-1.4688,-1.4736,-1.4748,-1.479,-1.4795,-1.4778,-1.478,-1.4795,-1.4793,-1.4845,-1.4852,-1.4824,-1.4824,-1.4824,0,-1.4355,-1.4379,-1.4418,-1.4437,-1.4456,-1.4487,-1.4508,-1.4531,-1.4553,-1.4593,-1.4612,-1.4649,-1.468,-1.4738,-1.4766,-1.4803,-1.4808,-1.4824,-1.4814,-1.4806,-1.4807,-1.4804,-1.4807,-1.4825,-1.4825,-1.4825,-1.4825,0,-1.4389,-1.4398,-1.4428,-1.4461,-1.4485,-1.4513,-1.4542,-1.4557,-1.4585,-1.4609,-1.4645,-1.4669,-1.4717,-1.4753,-1.4793,-1.4814,-1.4824,-1.4828,-1.4834,-1.4827,-1.4815,-1.482,-1.478,-1.4827,-1.4827,-1.4826,-1.4826,-1.4826,-1.4409,-1.443,-1.446,-1.4492,-1.4515,-1.4541,-1.4564,-1.4586,-1.4617,-1.4656,-1.4668,-1.4706,-1.4739,-1.4792,-1.4814,-1.4844,-1.4844,-1.4853,-1.4855,-1.4856,-1.4855,-1.4811,-1.4852,-1.4852,-1.4852,-1.4852,-1.4852,0,-1.4442,-1.4461,-1.4491,-1.4528,-1.4553,-1.4559,-1.4591,-1.4612,-1.4644,-1.4673,-1.4702,-1.4744,-1.4779,-1.481,-1.4847,-1.4866,-1.4871,-1.4875,-1.4873,-1.4878,-1.4854,-1.4845,-1.4869,-1.4869,-1.4869,-1.4869,-1.4869,-1.4869,-1.4461,-1.4497,-1.451,-1.4558,-1.4578,-1.4613,-1.463,-1.4654,-1.4677,-1.4722,-1.4751,-1.477,-1.48,-1.4839,-1.4872,-1.488,-1.4893,-1.4895,-1.4904,-1.4882,-1.4879,-1.4877,-1.4869,-1.4898,-1.4898,-1.4925,-1.4925,-1.4925]},{"header":{"parameterUnit":"m.s-1","parameterCategory":1,"la1":30.2991,"la2":30.254,"lo1":-89.0895,"lo2":-89.0444,"dy":0.0017,"dx":0.0017,"nx":28,"ny":28,"refTime":"2024-02-25T09:00:00:Z","depth":0,"parameterNumber":3,"parameterNumberName":"V-component_of_WINDS"},"data":[0,0,0,0,0,0,0,0,0,0,0,0,0,0,0,0,0,0,0,0,0,0,0,0,0,0,0,0,0,0,0,0,0,0,0,0,0,0,0,0,0,0,0,0,0,0,0,0,0,0,0,0,0,0,0,0,0,0,1.3061,1.3063,0,1.3222,1.3223,1.3225,1.3239,1.3238,1.3236,1.3234,1.34,1.3406,1.3412,0,0,0,0,0,0,0,0,0,0,0,0,0,1.277,1.2775,1.3061,1.3063,1.3065,1.3221,1.3224,1.3226,1.324,1.3238,1.3236,1.3234,1.3398,1.3405,1.3413,0,0,0,0,0,0,0,0,0,0,0,0,0,1.291,1.2777,1.3061,1.3091,1.3095,1.3221,1.3224,1.3226,1.324,1.3238,1.3235,1.3233,1.3396,1.3405,1.3414,1.3521,0,0,1.3441,1.3445,0,0,0,0,0,0,0,0,1.2902,1.292,1.3085,1.3089,1.3094,1.3208,1.3181,1.3325,1.3241,1.3185,1.3234,1.3231,1.3338,1.3352,1.3388,1.3528,1.3535,1.3442,1.3447,1.3451,1.3454,0,0,0,0,0,0,0,1.2892,1.2914,1.3125,1.3087,1.3093,1.3097,1.3114,1.3209,1.3274,1.319,1.3191,1.321,1.3341,1.3379,1.3392,1.3538,1.3442,1.345,1.3455,1.3459,1.3776,1.3779,0,0,0,0,0,0,1.2876,1.2905,1.312,1.313,1.299,1.3105,1.3124,1.3174,1.3273,1.3286,1.3212,1.321,1.3365,1.3381,1.3398,1.3531,1.3451,1.346,1.3465,1.3773,1.3776,1.378,0,0,0,0,0,0,1.287,1.2895,1.3113,1.3018,1.3046,1.3112,1.3169,1.3179,1.3217,1.329,1.3302,1.3239,1.3364,1.3385,1.349,1.3537,1.3464,1.3472,1.3769,1.3774,1.3778,1.3797,0,0,0,0,0,0,1.2862,1.2893,1.2934,1.3019,1.3051,1.3203,1.3172,1.3184,1.3232,1.3231,1.3319,1.3331,1.3363,1.3477,1.3499,1.3548,1.3479,1.3765,1.3771,1.3777,1.3793,1.3802,1.381,0,0,0,0,0,1.2851,1.2933,1.2936,1.2962,1.3103,1.3205,1.3224,1.3259,1.3236,1.3278,1.3325,1.3328,1.3527,1.3487,1.3513,1.3565,1.3763,1.377,1.3776,1.3789,1.38,1.3809,0,0,0,0,0,0,1.2853,1.2945,1.2949,1.306,1.3125,1.3207,1.3262,1.3269,1.3342,1.3338,1.3379,1.3399,1.3503,1.3544,1.3498,1.3674,1.3643,1.3655,1.3644,1.3655,1.3663,1.3652,1.3486,0,0,0,0,0,1.2866,1.294,1.3016,1.3108,1.314,1.3195,1.3241,1.3262,1.3331,1.3358,1.3413,1.348,1.3558,1.3608,1.3684,1.3798,1.3818,1.3846,1.3855,1.3861,1.3872,1.3937,1.3951,1.3802,1.3802,1.3802,0,0,1.2894,1.2953,1.2998,1.3109,1.3162,1.3239,1.3218,1.33,1.3358,1.3371,1.3474,1.3516,1.3594,1.3704,1.3755,1.3742,1.3917,1.387,1.3875,1.3882,1.3945,1.3959,1.3972,1.3806,1.3806,1.3805,0,0,1.2985,1.3037,1.3119,1.3172,1.3251,1.3288,1.3307,1.3389,1.3417,1.3521,1.3533,1.3602,1.3735,1.379,1.3836,1.3948,1.3954,1.3971,1.4016,1.4079,1.409,1.4101,1.4143,1.4157,1.3981,1.3981,1.3981,0,1.3011,1.3126,1.3161,1.3243,1.3292,1.3306,1.3391,1.344,1.3541,1.3575,1.3558,1.3725,1.3778,1.3903,1.393,1.3966,1.3991,1.3962,1.4086,1.4097,1.4107,1.4147,1.4163,1.3983,1.3983,1.3982,1.3982,0,1.3155,1.3235,1.3292,1.3388,1.3443,1.3526,1.3574,1.3626,1.3642,1.368,1.3786,1.385,1.394,1.397,1.3987,1.4098,1.4087,1.4077,1.4047,1.4123,1.4161,1.4177,1.3985,1.3985,1.3984,1.3984,0,0,1.3253,1.3366,1.3387,1.3431,1.352,1.3583,1.3666,1.3753,1.3798,1.3866,1.3938,1.405,1.4042,1.4094,1.4117,1.4171,1.4258,1.4155,1.4158,1.4174,1.4385,1.4394,1.4411,1.4262,1.4265,1.4267,1.4379,0,1.3356,1.3505,1.3538,1.3666,1.3742,1.3756,1.3829,1.3892,1.3929,1.3999,1.4041,1.4121,1.4103,1.4134,1.4189,1.4236,1.4301,1.4228,1.4331,1.4334,1.4313,1.4431,1.444,1.4543,1.4395,1.4397,1.4399,0,1.3496,1.3567,1.3703,1.3782,1.3815,1.388,1.3963,1.4029,1.41,1.4124,1.4181,1.4199,1.4287,1.4251,1.4374,1.4323,1.4367,1.4396,1.4401,1.4414,1.4372,1.4448,1.4576,1.4592,1.4423,1.4421,1.4419,0,1.3556,1.3686,1.3785,1.3822,1.3916,1.3962,1.4003,1.4072,1.4122,1.4194,1.4228,1.4309,1.4355,1.4418,1.4457,1.4426,1.4578,1.4544,1.4601,1.46,1.4634,1.4632,1.4773,1.4659,1.4658,1.4658,1.4658,0,1.3669,1.3752,1.3813,1.3874,1.3968,1.4005,1.4097,1.4139,1.42,1.4269,1.4286,1.4352,1.4398,1.4471,1.4502,1.46,1.4619,1.4642,1.465,1.4642,1.4639,1.4673,1.4667,1.4662,1.4661,1.466,1.466,0,1.3753,1.3797,1.3906,1.3986,1.4008,1.4074,1.4143,1.4203,1.424,1.4328,1.4351,1.4411,1.4496,1.4541,1.4648,1.4669,1.478,1.4782,1.4756,1.476,1.4815,1.481,1.4984,1.501,1.4876,1.4877,1.4878,0,1.3823,1.3888,1.3974,1.4022,1.4064,1.4141,1.4192,1.4231,1.4284,1.437,1.442,1.4506,1.4578,1.4714,1.4768,1.485,1.4856,1.4911,1.4868,1.4859,1.4859,1.4855,1.4863,1.4919,1.492,1.4921,1.4922,0,1.3944,1.3962,1.4035,1.4116,1.4177,1.4243,1.4308,1.4346,1.4395,1.4454,1.4542,1.4597,1.4706,1.4792,1.4878,1.4922,1.4931,1.4935,1.4953,1.4947,1.4929,1.4941,1.4779,1.4931,1.493,1.493,1.4929,1.4929,1.4025,1.4083,1.4153,1.4234,1.4287,1.4347,1.4408,1.4453,1.4526,1.4618,1.4636,1.4729,1.48,1.4916,1.4962,1.5036,1.5025,1.505,1.5057,1.5063,1.5067,1.4915,1.5051,1.5051,1.5051,1.5051,1.5051,0,1.4148,1.4194,1.4268,1.4358,1.4422,1.4423,1.4495,1.4549,1.463,1.4695,1.4764,1.4865,1.4949,1.5008,1.5093,1.5141,1.5148,1.5163,1.5161,1.5171,1.5071,1.5048,1.5156,1.5156,1.5156,1.5156,1.5156,1.5156,1.422,1.4319,1.4346,1.4471,1.4516,1.4607,1.4649,1.4705,1.4756,1.4868,1.4938,1.4975,1.5038,1.5128,1.5205,1.522,1.5252,1.5267,1.5283,1.5189,1.5178,1.5167,1.5146,1.5273,1.5273,1.5377,1.5378,1.5378]}]]